This is the latest recevied weather packets stored in our database for station/object KE0QIB. If no packets are shown the sender has not sent any weather packets the latest 10 day(s).
| Time | Temp. | Humidity | Pressure | Rain* | Wind** | Luminosity | Snow |
|---|---|---|---|---|---|---|---|
| 1778074010 | 3.89° C | 47% | 1005.8 hPa | 0 mm | - | - | - |
| 1778073710 | 3.33° C | 47% | 1005.7 hPa | 0 mm | - | - | - |
| 1778073410 | 3.33° C | 46% | 1005.7 hPa | 0 mm | - | - | - |
| 1778073110 | 2.78° C | 48% | 1005.7 hPa | 0 mm | - | - | - |
| 1778072810 | 2.78° C | 47% | 1006 hPa | 0 mm | - | - | - |
| 1778072510 | 2.22° C | 48% | 1006 hPa | 0 mm | - | - | - |
| 1778072210 | 2.22° C | 49% | 1006 hPa | 0 mm | - | - | - |
| 1778071910 | 2.22° C | 50% | 1006.2 hPa | 0 mm | - | - | - |
| 1778071610 | 1.67° C | 51% | 1006.2 hPa | 0 mm | - | - | - |
| 1778071310 | 1.11° C | 52% | 1006.2 hPa | 0 mm | - | - | - |
| 1778071010 | 1.11° C | 54% | 1006.4 hPa | 0 mm | - | - | - |
| 1778070710 | 0.56° C | 55% | 1006.4 hPa | 0 mm | - | - | - |
| 1778070410 | 0° C | 57% | 1006.4 hPa | 0 mm | - | - | - |
| 1778070110 | -0.56° C | 58% | 1006.3 hPa | 0 mm | - | - | - |
| 1778069810 | -0.56° C | 59% | 1006.3 hPa | 0 mm | - | - | - |
| 1778069510 | -1.11° C | 59% | 1006.3 hPa | 0 mm | - | - | - |
| 1778069210 | -1.11° C | 59% | 1006.7 hPa | 0 mm | - | - | - |
| 1778068910 | -1.11° C | 58% | 1006.7 hPa | 0 mm | - | - | - |
| 1778068610 | -1.11° C | 59% | 1006.7 hPa | 0 mm | - | - | - |
| 1778068310 | -1.11° C | 58% | 1006.6 hPa | 0 mm | - | - | - |
| 1778068010 | -1.11° C | 58% | 1006.6 hPa | 0 mm | - | - | - |
| 1778067710 | -1.11° C | 58% | 1006.6 hPa | 0 mm | - | - | - |
| 1778067410 | -1.11° C | 58% | 1006.4 hPa | 0 mm | - | - | - |
| 1778067110 | -1.11° C | 58% | 1006.4 hPa | 0 mm | - | - | - |
| 1778066810 | -1.11° C | 58% | 1006.4 hPa | 0 mm | - | - | - |
* Rain latest hour (hover to see other rain measurements)
** Current wind speed in m/s (hover to see current wind gust speed)